Location: Beaurecueil
(43.5122°N, 5.5450°E)
Time: 14:28:54
(UTC+00:00)

Cosmos 1898 Rocket - Pass Details

Date: 18 September 2020
Orbit: 753 x 784 km, 74.0° (Epoch: 29 October)

Event Time Altitude Azimuth Distance (km) Brightness Sun altitude
Rises 18:22:46 0° 200° (SSW) 3,192 6.9 -8.2°
Reaches altitude 10° 18:25:07 10° 201° (SSW) 2,270 6.1 -8.6°
Maximum altitude 18:30:16 84° 289° (WNW) 763 3.6 -9.5°
Drops below altitude 10° 18:35:28 10° 19° (NNE) 2,289 5.9 -10.5°
Sets 18:37:51 0° 20° (NNE) 3,221 6.7 -10.9°
